Tracking 19638 objects as of 20-May-2019
HD Live streaming from Space Station
objects crossing your sky now

ASTRA 1H

Track ASTRA 1H now!
ASTRA 1H is classified as:


NORAD ID: 25785
Int'l Code: 1999-033A
Perigee: 35,778.5 km
Apogee: 35,806.8 km
Inclination: 5.2 °
Period: 1,436.0 minutes
Semi major axis: 42163 km
RCS: 0.8136 m2 (medium)
Launch date: June 18, 1999
Source: SOCIETE EUROPEENNE DES SATELLITES (SES)
Launch site: TYURATAM MISSILE AND SPACE COMPLEX (TTMTR)

Direct-to-home tv; multimedia; broadcasting; 32 Ku-band for first five years, 28 after; Europe
aabbcc
Your satellite tracking list
Your tracking list is empty




NASA's NSSDC Master Catalog

Two Line Element Set (TLE):
1 25785U 99033A   19139.79414227 -.00000288  00000-0  00000+0 0  9998
2 25785   5.1760  65.9761 0003358 345.4842  44.4720  1.00275571 72863
Source of the keplerian elements: AFSPC